Time,TemperatureF,DewpointF,PressureIn,WindDirection,WindDirectionDegrees,WindSpeedMPH,WindSpeedGustMPH,Humidity,HourlyPrecipIn,Conditions,Clouds,dailyrainin,SoftwareType,DateUTC
2013-01-25 00:00:00,10.6,3.9,30.51,WNW,288,4.0,4.0,74,0.00,,,0.00,Wunderground v.1.15,2013-01-25 05:00:00,
2013-01-25 00:05:00,10.6,3.9,30.51,WNW,297,3.0,4.0,74,0.00,,,0.00,Wunderground v.1.15,2013-01-25 05:05:00,
2013-01-25 00:15:00,10.4,3.8,30.51,WNW,294,4.0,4.0,74,0.00,,,0.00,Wunderground v.1.15,2013-01-25 05:15:00,
2013-01-25 00:20:00,10.4,3.8,30.51,NW,314,4.0,4.0,74,0.00,,,0.00,Wunderground v.1.15,2013-01-25 05:20:00,
2013-01-25 00:25:00,10.4,3.8,30.51,WNW,297,3.0,5.0,74,0.00,,,0.00,Wunderground v.1.15,2013-01-25 05:25:00,
2013-01-25 00:30:00,10.3,3.7,30.51,WNW,303,4.0,4.0,74,0.00,,,0.00,Wunderground v.1.15,2013-01-25 05:30:00,
2013-01-25 00:40:00,10.3,3.7,30.50,WNW,285,4.0,4.0,74,0.00,,,0.00,Wunderground v.1.15,2013-01-25 05:40:00,
2013-01-25 00:50:00,10.3,3.9,30.50,NW,307,3.0,3.0,75,0.00,,,0.00,Wunderground v.1.15,2013-01-25 05:50:00,
2013-01-25 01:00:00,10.2,3.8,30.49,WNW,297,4.0,4.0,75,0.00,,,0.00,Wunderground v.1.15,2013-01-25 06:00:00,
2013-01-25 01:10:00,10.2,4.1,30.49,NNW,335,4.0,4.0,76,0.00,,,0.00,Wunderground v.1.15,2013-01-25 06:10:00,
2013-01-25 01:20:00,10.2,4.1,30.49,WNW,290,3.0,3.0,76,0.00,,,0.00,Wunderground v.1.15,2013-01-25 06:20:00,
2013-01-25 01:30:00,10.1,4.3,30.49,NNW,335,2.0,2.0,77,0.00,,,0.00,Wunderground v.1.15,2013-01-25 06:30:00,
2013-01-25 01:40:00,10.0,4.5,30.49,WNW,286,3.0,5.0,78,0.00,,,0.00,Wunderground v.1.15,2013-01-25 06:40:00,
2013-01-25 01:45:00,9.9,4.4,30.49,West,281,4.0,6.0,78,0.00,,,0.00,Wunderground v.1.15,2013-01-25 06:45:00,
2013-01-25 01:50:00,9.9,4.7,30.49,WNW,299,3.0,3.0,79,0.00,,,0.00,Wunderground v.1.15,2013-01-25 06:50:00,
2013-01-25 02:00:00,9.8,4.6,30.49,NW,325,3.0,3.0,79,0.00,,,0.00,Wunderground v.1.15,2013-01-25 07:00:00,
2013-01-25 02:10:00,9.7,4.8,30.49,West,274,2.0,2.0,80,0.00,,,0.00,Wunderground v.1.15,2013-01-25 07:10:00,
2013-01-25 02:20:00,9.6,4.9,30.49,NNW,333,2.0,2.0,81,0.00,,,0.00,Wunderground v.1.15,2013-01-25 07:20:00,
2013-01-25 02:30:00,9.6,5.2,30.50,NW,304,1.0,2.0,82,0.00,,,0.00,Wunderground v.1.15,2013-01-25 07:30:00,
2013-01-25 02:40:00,9.6,5.2,30.49,WNW,283,1.0,1.0,82,0.00,,,0.00,Wunderground v.1.15,2013-01-25 07:40:00,
2013-01-25 02:50:00,9.6,5.2,30.49,West,277,1.0,1.0,82,0.00,,,0.00,Wunderground v.1.15,2013-01-25 07:50:00,
2013-01-25 02:55:00,9.6,5.2,30.49,West,274,1.0,2.0,82,0.00,,,0.00,Wunderground v.1.15,2013-01-25 07:55:00,
2013-01-25 03:00:00,9.6,5.5,30.49,WNW,287,1.0,1.0,83,0.00,,,0.00,Wunderground v.1.15,2013-01-25 08:00:00,
2013-01-25 03:10:00,9.6,5.2,30.49,WNW,295,2.0,2.0,82,0.00,,,0.00,Wunderground v.1.15,2013-01-25 08:10:00,
2013-01-25 03:20:00,9.5,5.1,30.49,NW,310,2.0,2.0,82,0.00,,,0.00,Wunderground v.1.15,2013-01-25 08:20:00,
2013-01-25 03:25:00,9.6,5.2,30.49,WNW,283,2.0,2.0,82,0.00,,,0.00,Wunderground v.1.15,2013-01-25 08:25:00,
2013-01-25 03:30:00,9.6,5.2,30.49,WNW,295,2.0,2.0,82,0.00,,,0.00,Wunderground v.1.15,2013-01-25 08:30:00,
2013-01-25 03:40:00,9.6,5.5,30.49,NW,307,2.0,2.0,83,0.00,,,0.00,Wunderground v.1.15,2013-01-25 08:40:00,
2013-01-25 03:50:00,9.6,5.5,30.48,NW,307,2.0,2.0,83,0.00,,,0.00,Wunderground v.1.15,2013-01-25 08:50:00,
2013-01-25 04:00:00,9.6,5.7,30.49,NW,307,2.0,2.0,84,0.00,,,0.00,Wunderground v.1.15,2013-01-25 09:00:00,
2013-01-25 04:10:00,9.6,5.7,30.48,NW,326,2.0,3.0,84,0.00,,,0.00,Wunderground v.1.15,2013-01-25 09:10:00,
2013-01-25 04:20:00,9.6,5.7,30.48,NW,309,2.0,2.0,84,0.00,,,0.00,Wunderground v.1.15,2013-01-25 09:20:00,
2013-01-25 04:30:00,9.5,5.6,30.46,WNW,293,2.0,2.0,84,0.00,,,0.00,Wunderground v.1.15,2013-01-25 09:30:00,
2013-01-25 04:40:00,9.5,5.6,30.46,WNW,288,1.0,2.0,84,0.00,,,0.00,Wunderground v.1.15,2013-01-25 09:40:00,
2013-01-25 04:50:00,9.4,5.8,30.46,WNW,301,1.0,2.0,85,0.00,,,0.00,Wunderground v.1.15,2013-01-25 09:50:00,
2013-01-25 05:00:00,9.4,5.5,30.45,West,269,2.0,2.0,84,0.00,,,0.00,Wunderground v.1.15,2013-01-25 10:00:00,
2013-01-25 05:10:00,9.4,5.8,30.45,WNW,282,1.0,1.0,85,0.00,,,0.00,Wunderground v.1.15,2013-01-25 10:10:00,
2013-01-25 05:20:00,9.4,5.5,30.44,NW,314,1.0,1.0,84,0.00,,,0.00,Wunderground v.1.15,2013-01-25 10:20:00,
2013-01-25 05:30:00,9.4,5.5,30.44,WNW,295,1.0,1.0,84,0.00,,,0.00,Wunderground v.1.15,2013-01-25 10:30:00,
2013-01-25 05:40:00,9.3,5.4,30.44,NW,317,1.0,2.0,84,0.00,,,0.00,Wunderground v.1.15,2013-01-25 10:40:00,
2013-01-25 05:50:00,9.2,5.3,30.44,WNW,287,1.0,1.0,84,0.00,,,0.00,Wunderground v.1.15,2013-01-25 10:50:00,
2013-01-25 06:00:00,9.1,5.2,30.43,NW,314,1.0,1.0,84,0.00,,,0.00,Wunderground v.1.15,2013-01-25 11:00:00,
2013-01-25 06:10:00,9.1,5.2,30.43,NW,304,1.0,1.0,84,0.00,,,0.00,Wunderground v.1.15,2013-01-25 11:10:00,
2013-01-25 06:20:00,9.0,5.1,30.43,West,275,1.0,1.0,84,0.00,,,0.00,Wunderground v.1.15,2013-01-25 11:20:00,
2013-01-25 06:30:00,8.9,5.1,30.43,WNW,286,0.0,0.0,84,0.00,,,0.00,Wunderground v.1.15,2013-01-25 11:30:00,
2013-01-25 06:40:00,8.9,5.1,30.43,WNW,285,0.0,0.0,84,0.00,,,0.00,Wunderground v.1.15,2013-01-25 11:40:00,
2013-01-25 06:50:00,8.7,4.9,30.43,WNW,285,0.0,0.0,84,0.00,,,0.00,Wunderground v.1.15,2013-01-25 11:50:00,
2013-01-25 07:00:00,8.7,5.1,30.43,ESE,115,1.0,1.0,85,0.00,,,0.00,Wunderground v.1.15,2013-01-25 12:00:00,
2013-01-25 07:05:00,8.6,5.0,30.43,ESE,115,1.0,1.0,85,0.00,,,0.00,Wunderground v.1.15,2013-01-25 12:05:00,
2013-01-25 07:10:00,8.5,4.9,30.43,ESE,115,1.0,1.0,85,0.00,,,0.00,Wunderground v.1.15,2013-01-25 12:10:00,
2013-01-25 07:20:00,8.4,5.1,30.43,ESE,115,0.0,0.0,86,0.00,,,0.00,Wunderground v.1.15,2013-01-25 12:20:00,
2013-01-25 07:25:00,8.3,5.0,30.43,ESE,115,0.0,0.0,86,0.00,,,0.00,Wunderground v.1.15,2013-01-25 12:25:00,
2013-01-25 07:35:00,8.3,5.0,30.43,ESE,115,0.0,0.0,86,0.00,,,0.00,Wunderground v.1.15,2013-01-25 12:35:00,
2013-01-25 07:40:00,8.2,4.9,30.42,ESE,115,0.0,0.0,86,0.00,,,0.00,Wunderground v.1.15,2013-01-25 12:40:00,
2013-01-25 07:50:00,8.0,4.7,30.42,ESE,115,0.0,0.0,86,0.00,,,0.00,Wunderground v.1.15,2013-01-25 12:50:00,
2013-01-25 07:55:00,8.0,4.7,30.42,ESE,115,0.0,0.0,86,0.00,,,0.00,Wunderground v.1.15,2013-01-25 12:55:00,
2013-01-25 08:05:00,8.2,4.9,30.41,ESE,115,0.0,0.0,86,0.00,,,0.00,Wunderground v.1.15,2013-01-25 13:05:00,
2013-01-25 08:10:00,8.3,5.0,30.41,ESE,115,0.0,0.0,86,0.00,,,0.00,Wunderground v.1.15,2013-01-25 13:10:00,
2013-01-25 08:20:00,8.8,5.5,30.41,ESE,116,0.0,1.0,86,0.00,,,0.00,Wunderground v.1.15,2013-01-25 13:20:00,
2013-01-25 08:25:00,9.0,5.7,30.41,SE,136,1.0,1.0,86,0.00,,,0.00,Wunderground v.1.15,2013-01-25 13:25:00,
2013-01-25 08:35:00,9.4,5.5,30.41,SE,131,1.0,1.0,84,0.00,,,0.00,Wunderground v.1.15,2013-01-25 13:35:00,
2013-01-25 08:45:00,9.9,5.5,30.40,South,187,1.0,2.0,82,0.00,,,0.00,Wunderground v.1.15,2013-01-25 13:45:00,
2013-01-25 08:55:00,10.4,5.7,30.40,SE,141,0.0,1.0,81,0.00,,,0.00,Wunderground v.1.15,2013-01-25 13:55:00,
2013-01-25 09:00:00,10.4,5.7,30.40,SE,141,1.0,1.0,81,0.00,,,0.00,Wunderground v.1.15,2013-01-25 14:00:00,
2013-01-25 09:05:00,10.7,6.0,30.40,SSE,150,1.0,1.0,81,0.00,,,0.00,Wunderground v.1.15,2013-01-25 14:05:00,
2013-01-25 09:10:00,10.8,5.8,30.40,SSE,147,1.0,1.0,80,0.00,,,0.00,Wunderground v.1.15,2013-01-25 14:10:00,
2013-01-25 09:20:00,11.1,5.9,30.39,SSE,164,1.0,1.0,79,0.00,,,0.00,Wunderground v.1.15,2013-01-25 14:20:00,
2013-01-25 09:30:00,11.5,6.2,30.39,SSE,158,1.0,1.0,79,0.00,,,0.00,Wunderground v.1.15,2013-01-25 14:30:00,
2013-01-25 09:40:00,11.5,6.2,30.39,SSE,153,2.0,2.0,79,0.00,,,0.00,Wunderground v.1.15,2013-01-25 14:40:00,
2013-01-25 09:45:00,11.8,6.3,30.39,SE,141,2.0,2.0,78,0.00,,,0.00,Wunderground v.1.15,2013-01-25 14:45:00,
2013-01-25 09:55:00,11.9,6.4,30.38,South,179,2.0,3.0,78,0.00,,,0.00,Wunderground v.1.15,2013-01-25 14:55:00,
2013-01-25 10:00:00,12.1,6.3,30.37,SE,130,2.0,2.0,77,0.00,,,0.00,Wunderground v.1.15,2013-01-25 15:00:00,
2013-01-25 10:10:00,12.8,6.4,30.37,SE,140,2.0,4.0,75,0.00,,,0.00,Wunderground v.1.15,2013-01-25 15:10:00,
2013-01-25 10:20:00,13.0,6.9,30.37,SE,125,2.0,2.0,76,0.00,,,0.00,Wunderground v.1.15,2013-01-25 15:20:00,
2013-01-25 10:30:00,13.0,6.6,30.36,ESE,113,3.0,5.0,75,0.00,,,0.00,Wunderground v.1.15,2013-01-25 15:30:00,
2013-01-25 10:40:00,13.2,6.8,30.35,ESE,103,3.0,4.0,75,0.00,,,0.00,Wunderground v.1.15,2013-01-25 15:40:00,
2013-01-25 10:50:00,13.0,6.9,30.35,SSE,162,4.0,4.0,76,0.00,,,0.00,Wunderground v.1.15,2013-01-25 15:50:00,
2013-01-25 11:00:00,13.2,6.8,30.34,ESE,120,3.0,4.0,75,0.00,,,0.00,Wunderground v.1.15,2013-01-25 16:00:00,
2013-01-25 11:10:00,13.6,6.8,30.33,SE,138,4.0,6.0,74,0.00,,,0.00,Wunderground v.1.15,2013-01-25 16:10:00,
2013-01-25 11:20:00,13.5,6.8,30.32,SSE,162,4.0,4.0,74,0.00,,,0.00,Wunderground v.1.15,2013-01-25 16:20:00,
2013-01-25 11:30:00,13.4,6.7,30.32,ESE,110,4.0,4.0,74,0.00,,,0.00,Wunderground v.1.15,2013-01-25 16:30:00,
2013-01-25 11:40:00,14.0,7.2,30.31,South,174,4.0,6.0,74,0.00,,,0.00,Wunderground v.1.15,2013-01-25 16:40:00,
2013-01-25 11:50:00,14.4,7.3,30.31,SSE,167,5.0,5.0,73,0.00,,,0.00,Wunderground v.1.15,2013-01-25 16:50:00,
2013-01-25 12:00:00,14.7,7.9,30.30,SSW,199,4.0,4.0,74,0.00,,,0.00,Wunderground v.1.15,2013-01-25 17:00:00,
2013-01-25 12:10:00,14.5,7.4,30.28,SE,127,5.0,5.0,73,0.00,,,0.00,Wunderground v.1.15,2013-01-25 17:10:00,
2013-01-25 12:20:00,14.6,7.5,30.27,SE,142,4.0,5.0,73,0.00,,,0.00,Wunderground v.1.15,2013-01-25 17:20:00,
2013-01-25 12:30:00,14.9,7.5,30.27,SSE,159,5.0,5.0,72,0.00,,,0.00,Wunderground v.1.15,2013-01-25 17:30:00,
2013-01-25 12:40:00,15.1,7.7,30.26,South,182,4.0,6.0,72,0.00,,,0.00,Wunderground v.1.15,2013-01-25 17:40:00,
2013-01-25 12:50:00,15.6,7.9,30.26,South,176,5.0,5.0,71,0.00,,,0.00,Wunderground v.1.15,2013-01-25 17:50:00,
2013-01-25 12:55:00,15.5,7.8,30.25,SE,128,5.0,5.0,71,0.00,,,0.00,Wunderground v.1.15,2013-01-25 17:55:00,
2013-01-25 13:05:00,15.4,8.3,30.25,SE,143,5.0,7.0,73,0.00,,,0.00,Wunderground v.1.15,2013-01-25 18:05:00,
2013-01-25 13:10:00,15.6,8.5,30.24,SSE,166,5.0,5.0,73,0.00,,,0.00,Wunderground v.1.15,2013-01-25 18:10:00,
2013-01-25 13:20:00,15.9,8.5,30.23,SSE,155,4.0,4.0,72,0.00,,,0.00,Wunderground v.1.15,2013-01-25 18:20:00,
2013-01-25 13:30:00,15.8,8.4,30.22,SSE,158,4.0,6.0,72,0.00,,,0.00,Wunderground v.1.15,2013-01-25 18:30:00,
2013-01-25 13:40:00,15.8,8.7,30.22,SSE,165,4.0,4.0,73,0.00,,,0.00,Wunderground v.1.15,2013-01-25 18:40:00,
2013-01-25 13:50:00,16.1,9.0,30.22,East,87,2.0,3.0,73,0.00,,,0.00,Wunderground v.1.15,2013-01-25 18:50:00,
2013-01-25 14:00:00,16.2,8.4,30.22,ESE,103,4.0,4.0,71,0.00,,,0.00,Wunderground v.1.15,2013-01-25 19:00:00,
2013-01-25 14:10:00,16.3,8.5,30.21,SE,129,4.0,5.0,71,0.00,,,0.00,Wunderground v.1.15,2013-01-25 19:10:00,
2013-01-25 14:20:00,16.0,8.3,30.21,South,178,5.0,5.0,71,0.00,,,0.00,Wunderground v.1.15,2013-01-25 19:20:00,
2013-01-25 14:30:00,15.7,8.0,30.20,ESE,117,4.0,4.0,71,0.00,,,0.00,Wunderground v.1.15,2013-01-25 19:30:00,
2013-01-25 14:40:00,15.5,8.4,30.20,SE,127,3.0,4.0,73,0.00,,,0.00,Wunderground v.1.15,2013-01-25 19:40:00,
2013-01-25 14:50:00,15.5,8.4,30.19,ESE,117,3.0,4.0,73,0.00,,,0.00,Wunderground v.1.15,2013-01-25 19:50:00,
2013-01-25 15:00:00,15.5,8.4,30.19,East,97,4.0,4.0,73,0.00,,,0.00,Wunderground v.1.15,2013-01-25 20:00:00,
2013-01-25 15:10:00,15.5,8.1,30.19,SE,139,5.0,5.0,72,0.00,,,0.00,Wunderground v.1.15,2013-01-25 20:10:00,
2013-01-25 15:15:00,15.6,8.2,30.19,SE,130,4.0,5.0,72,0.00,,,0.00,Wunderground v.1.15,2013-01-25 20:15:00,
2013-01-25 15:25:00,15.5,8.7,30.18,ESE,104,2.0,4.0,74,0.00,,,0.00,Wunderground v.1.15,2013-01-25 20:25:00,
2013-01-25 15:30:00,15.4,8.6,30.18,SE,132,3.0,3.0,74,0.00,,,0.00,Wunderground v.1.15,2013-01-25 20:30:00,
2013-01-25 15:35:00,15.4,8.6,30.17,ESE,118,3.0,4.0,74,0.00,,,0.00,Wunderground v.1.15,2013-01-25 20:35:00,
2013-01-25 15:45:00,15.3,9.1,30.17,ESE,102,3.0,3.0,76,0.00,,,0.00,Wunderground v.1.15,2013-01-25 20:45:00,
2013-01-25 15:55:00,15.1,9.5,30.17,ESE,122,4.0,4.0,78,0.00,,,0.00,Wunderground v.1.15,2013-01-25 20:55:00,
2013-01-25 16:00:00,14.9,9.6,30.16,SE,130,4.0,5.0,79,0.00,,,0.00,Wunderground v.1.15,2013-01-25 21:00:00,
2013-01-25 16:05:00,14.7,9.9,30.16,SE,141,4.0,5.0,81,0.00,,,0.00,Wunderground v.1.15,2013-01-25 21:05:00,
2013-01-25 16:10:00,14.6,9.8,30.15,ESE,115,4.0,5.0,81,0.00,,,0.00,Wunderground v.1.15,2013-01-25 21:10:00,
2013-01-25 16:20:00,14.5,10.3,30.15,SE,126,4.0,4.0,83,0.00,,,0.00,Wunderground v.1.15,2013-01-25 21:20:00,
2013-01-25 16:30:00,14.3,10.4,30.15,SE,128,5.0,5.0,84,0.00,,,0.00,Wunderground v.1.15,2013-01-25 21:30:00,
2013-01-25 16:40:00,14.3,10.4,30.14,ESE,117,4.0,5.0,84,0.00,,,0.00,Wunderground v.1.15,2013-01-25 21:40:00,
2013-01-25 16:45:00,14.3,10.4,30.14,ESE,112,4.0,8.0,84,0.00,,,0.00,Wunderground v.1.15,2013-01-25 21:45:00,
2013-01-25 16:55:00,14.0,10.1,30.14,ESE,104,5.0,5.0,84,0.00,,,0.00,Wunderground v.1.15,2013-01-25 21:55:00,
2013-01-25 17:00:00,13.9,10.0,30.14,East,101,4.0,4.0,84,0.00,,,0.00,Wunderground v.1.15,2013-01-25 22:00:00,
2013-01-25 17:10:00,13.7,9.8,30.14,East,100,4.0,4.0,84,0.00,,,0.00,Wunderground v.1.15,2013-01-25 22:10:00,
2013-01-25 17:20:00,13.5,9.6,30.14,ESE,104,4.0,5.0,84,0.00,,,0.00,Wunderground v.1.15,2013-01-25 22:20:00,
2013-01-25 17:30:00,13.4,9.7,30.14,ESE,104,5.0,5.0,85,0.00,,,0.00,Wunderground v.1.15,2013-01-25 22:30:00,
2013-01-25 17:35:00,13.4,9.7,30.14,ESE,104,4.0,5.0,85,0.00,,,0.00,Wunderground v.1.15,2013-01-25 22:35:00,
2013-01-25 17:40:00,13.4,9.7,30.14,East,91,3.0,3.0,85,0.00,,,0.00,Wunderground v.1.15,2013-01-25 22:40:00,
2013-01-25 17:50:00,13.4,9.7,30.14,ESE,106,3.0,3.0,85,0.00,,,0.00,Wunderground v.1.15,2013-01-25 22:50:00,
2013-01-25 17:55:00,13.4,9.7,30.14,East,100,3.0,3.0,85,0.00,,,0.00,Wunderground v.1.15,2013-01-25 22:55:00,
2013-01-25 18:00:00,13.3,9.6,30.13,East,98,2.0,2.0,85,0.00,,,0.00,Wunderground v.1.15,2013-01-25 23:00:00,
2013-01-25 18:10:00,13.2,9.8,30.13,East,98,2.0,3.0,86,0.00,,,0.00,Wunderground v.1.15,2013-01-25 23:10:00,
2013-01-25 18:15:00,13.2,9.8,30.13,East,101,2.0,3.0,86,0.00,,,0.00,Wunderground v.1.15,2013-01-25 23:15:00,
2013-01-25 18:25:00,13.1,9.7,30.13,ENE,77,3.0,5.0,86,0.00,,,0.00,Wunderground v.1.15,2013-01-25 23:25:00,
2013-01-25 18:30:00,13.1,9.7,30.13,East,87,3.0,3.0,86,0.00,,,0.00,Wunderground v.1.15,2013-01-25 23:30:00,
2013-01-25 18:35:00,13.0,9.6,30.13,East,92,3.0,3.0,86,0.00,,,0.00,Wunderground v.1.15,2013-01-25 23:35:00,
2013-01-25 18:40:00,12.8,9.4,30.13,ENE,75,3.0,4.0,86,0.00,,,0.00,Wunderground v.1.15,2013-01-25 23:40:00,
2013-01-25 18:50:00,12.5,8.8,30.13,ENE,78,5.0,5.0,85,0.00,,,0.00,Wunderground v.1.15,2013-01-25 23:50:00,
2013-01-25 19:00:00,12.4,8.7,30.13,East,97,5.0,5.0,85,0.00,,,0.00,Wunderground v.1.15,2013-01-26 00:00:00,
2013-01-25 19:10:00,12.3,8.4,30.13,East,89,4.0,4.0,84,0.00,,,0.00,Wunderground v.1.15,2013-01-26 00:10:00,
2013-01-25 19:20:00,12.2,8.6,30.12,East,84,3.0,3.0,85,0.00,,,0.00,Wunderground v.1.15,2013-01-26 00:20:00,
2013-01-25 19:30:00,12.0,8.4,30.12,ENE,73,3.0,3.0,85,0.00,,,0.00,Wunderground v.1.15,2013-01-26 00:30:00,
2013-01-25 19:40:00,11.8,8.2,30.12,East,88,3.0,4.0,85,0.00,,,0.00,Wunderground v.1.15,2013-01-26 00:40:00,
2013-01-25 19:50:00,11.6,8.0,30.13,ENE,75,3.0,3.0,85,0.00,,,0.00,Wunderground v.1.15,2013-01-26 00:50:00,
2013-01-25 20:00:00,11.4,7.8,30.12,East,87,3.0,3.0,85,0.00,,,0.00,Wunderground v.1.15,2013-01-26 01:00:00,
2013-01-25 20:10:00,11.1,7.5,30.12,East,91,3.0,3.0,85,0.00,,,0.00,Wunderground v.1.15,2013-01-26 01:10:00,
2013-01-25 20:20:00,10.9,7.3,30.12,East,100,2.0,2.0,85,0.00,,,0.00,Wunderground v.1.15,2013-01-26 01:20:00,
2013-01-25 20:30:00,10.8,7.2,30.12,East,89,3.0,6.0,85,0.00,,,0.00,Wunderground v.1.15,2013-01-26 01:30:00,
2013-01-25 20:40:00,10.5,6.6,30.12,East,87,4.0,4.0,84,0.00,,,0.00,Wunderground v.1.15,2013-01-26 01:40:00,
2013-01-25 20:50:00,10.1,6.2,30.12,East,86,3.0,3.0,84,0.00,,,0.00,Wunderground v.1.15,2013-01-26 01:50:00,
2013-01-25 21:00:00,9.8,6.2,30.12,East,86,2.0,2.0,85,0.00,,,0.00,Wunderground v.1.15,2013-01-26 02:00:00,
2013-01-25 21:10:00,9.6,6.0,30.12,ENE,75,1.0,3.0,85,0.00,,,0.00,Wunderground v.1.15,2013-01-26 02:10:00,
2013-01-25 21:20:00,9.4,5.8,30.12,East,79,1.0,1.0,85,0.00,,,0.00,Wunderground v.1.15,2013-01-26 02:20:00,
2013-01-25 21:25:00,9.5,5.9,30.12,ENE,77,1.0,2.0,85,0.00,,,0.00,Wunderground v.1.15,2013-01-26 02:25:00,
2013-01-25 21:30:00,9.5,5.9,30.12,ENE,77,1.0,1.0,85,0.00,,,0.00,Wunderground v.1.15,2013-01-26 02:30:00,
2013-01-25 21:40:00,9.3,5.7,30.12,East,80,1.0,2.0,85,0.00,,,0.00,Wunderground v.1.15,2013-01-26 02:40:00,
2013-01-25 21:50:00,9.0,5.4,30.12,East,79,1.0,1.0,85,0.00,,,0.00,Wunderground v.1.15,2013-01-26 02:50:00,
2013-01-25 21:55:00,8.7,5.1,30.12,East,79,2.0,2.0,85,0.00,,,0.00,Wunderground v.1.15,2013-01-26 02:55:00,
2013-01-25 22:00:00,8.1,4.3,30.12,East,79,1.0,1.0,84,0.00,,,0.00,Wunderground v.1.15,2013-01-26 03:00:00,
2013-01-25 22:10:00,7.2,3.6,30.12,East,79,0.0,0.0,85,0.00,,,0.00,Wunderground v.1.15,2013-01-26 03:10:00,
2013-01-25 22:20:00,6.6,3.3,30.11,ENE,66,0.0,0.0,86,0.00,,,0.00,Wunderground v.1.15,2013-01-26 03:20:00,
2013-01-25 22:30:00,6.0,2.7,30.11,ENE,66,0.0,0.0,86,0.00,,,0.00,Wunderground v.1.15,2013-01-26 03:30:00,
2013-01-25 22:40:00,5.4,2.1,30.12,ENE,66,0.0,0.0,86,0.00,,,0.00,Wunderground v.1.15,2013-01-26 03:40:00,
2013-01-25 22:50:00,4.9,2.1,30.12,ENE,66,0.0,0.0,88,0.00,,,0.00,Wunderground v.1.15,2013-01-26 03:50:00,
2013-01-25 22:55:00,5.4,2.9,30.12,NW,304,0.0,0.0,89,0.00,,,0.00,Wunderground v.1.15,2013-01-26 03:55:00,
2013-01-25 23:00:00,5.5,2.7,30.12,NW,304,0.0,0.0,88,0.00,,,0.00,Wunderground v.1.15,2013-01-26 04:00:00,
2013-01-25 23:10:00,4.3,1.0,30.12,NW,304,0.0,0.0,86,0.00,,,0.00,Wunderground v.1.15,2013-01-26 04:10:00,
2013-01-25 23:20:00,3.7,0.9,30.12,NW,304,0.0,0.0,88,0.00,,,0.00,Wunderground v.1.15,2013-01-26 04:20:00,
2013-01-25 23:25:00,3.7,1.2,30.12,NW,304,0.0,0.0,89,0.00,,,0.00,Wunderground v.1.15,2013-01-26 04:25:00,
2013-01-25 23:30:00,3.8,1.3,30.12,NW,304,0.0,0.0,89,0.00,,,0.00,Wunderground v.1.15,2013-01-26 04:30:00,
2013-01-25 23:40:00,3.2,0.4,30.12,NW,304,0.0,0.0,88,0.00,,,0.00,Wunderground v.1.15,2013-01-26 04:40:00,
2013-01-25 23:50:00,2.4,-0.3,30.12,NW,304,0.0,0.0,88,0.00,,,0.00,Wunderground v.1.15,2013-01-26 04:50:00,
2013-01-25 23:55:00,2.3,-0.4,30.12,NW,304,0.0,0.0,88,0.00,,,0.00,Wunderground v.1.15,2013-01-26 04:55:00,